RH
66 66 63 59 56 61 69 71 71 70 69 70 75 77 73 68 65 63 60 51 44 46 53 62 73 78 80 82 83 85 87 87 88 88 85 82 81 76 73 63 34 15 16 12 6 8 9 10 12 14 17 18 23 40 61 76 82 83 85 90 91 90 91 89 83 83 83 78 76 76 75 74 76 79
66 66 65 60 58 62 64 65 70 70 65 64 72 82 81 74 72 71 67 57 49 49 51 53 63 72 75 78 79 81 82 83 84 88 87 83 83 80 77 72 44 21 25 26 14 9 9 7 8 9 9 10 9 12 22 36 53 70 78 81 86 88 87 84 82 84 87 83 80 81 78 76 78 78
70 70 72 69 68 72 69 68 74 72 65 65 71 80 79 75 79 81 76 69 57 53 54 52 58 67 69 72 77 78 79 81 82 85 85 83 84 83 81 79 59 32 31 39 32 26 26 21 17 15 14 13 13 13 14 13 20 38 54 64 75 83 84 85 85 84 84 83 82 84 83 79 78 79
74 77 80 79 78 79 76 75 78 75 70 70 72 78 78 74 80 86 85 79 65 59 62 59 56 63 68 72 77 78 77 79 81 82 82 81 84 88 87 84 72 47 36 43 49 49 49 45 37 31 27 25 23 23 24 20 15 18 25 35 51 64 73 81 84 82 82 82 84 84 82 80 79 79
78 82 85 89 85 81 82 83 79 74 76 78 78 81 83 80 80 83 86 82 70 66 70 66 58 62 70 74 78 79 79 79 80 81 83 81 81 86 89 89 84 68 51 50 60 64 60 55 52 49 46 45 46 46 41 36 30 26 24 25 30 37 48 61 71 77 78 80 84 84 80 78 79 81
82 83 83 88 89 84 87 89 83 81 84 85 84 83 85 89 87 86 88 85 78 74 72 67 62 64 72 75 77 81 81 79 79 82 86 85 82 83 87 91 91 86 74 63 64 70 69 62 58 57 58 60 67 73 69 60 52 45 40 36 32 30 32 39 48 60 69 75 78 81 82 81 80 82
86 86 84 85 90 90 88 88 87 88 89 88 89 86 87 95 95 91 93 89 83 80 76 67 61 65 72 74 76 83 83 81 84 87 88 89 89 88 89 92 94 93 89 77 66 66 71 73 70 65 62 61 67 75 77 74 67 61 56 50 44 38 37 37 38 43 54 63 69 76 84 86 83 85
88 89 88 85 89 92 90 88 87 88 91 93 93 90 91 97 96 95 99 95 88 85 83 75 66 65 71 72 77 87 88 89 94 96 95 96 96 94 94 97 99 98 98 92 82 73 69 71 75 75 72 66 63 64 68 72 73 71 69 65 58 50 46 45 45 44 46 52 59 69 79 85 88 91
92 91 91 87 89 93 92 88 86 87 92 97 95 92 92 93 94 98 100 98 97 93 89 87 79 71 71 74 81 88 90 95 101 100 99 100 99 98 98 98 97 97 99 99 95 89 81 74 71 74 78 76 69 63 63 67 72 73 74 76 74 67 57 54 55 54 52 51 52 58 70 83 92 94
97 95 94 91 91 95 94 91 89 88 92 98 99 96 94 93 95 99 96 93 95 93 89 90 87 78 75 78 84 89 91 94 99 100 100 101 100 100 99 96 92 90 92 96 95 94 93 87 77 74 78 81 78 71 66 66 69 72 74 77 82 81 72 66 69 69 65 59 54 55 64 76 86 92
98 97 96 95 94 97 96 93 92 91 92 96 98 97 97 97 97 96 89 84 83 81 81 86 88 86 85 84 85 90 92 92 94 95 96 97 99 100 100 98 95 91 91 93 94 93 94 93 86 78 76 81 82 78 74 71 69 72 75 74 77 84 83 78 81 86 85 76 65 63 70 77 83 89
95 96 98 98 96 99 99 94 92 93 93 94 96 97 99 100 100 96 86 78 75 73 72 74 80 88 92 89 87 90 92 92 91 90 89 89 91 94 96 98 97 95 95 94 91 90 93 97 95 86 77 76 77 77 77 76 71 70 74 74 72 75 81 81 82 87 94 93 81 71 73 79 85 89
96 98 99 98 97 99 99 95 92 93 94 94 93 94 98 100 99 94 85 76 73 71 69 66 70 81 88 89 89 92 91 88 87 89 87 85 85 86 88 92 91 89 90 92 89 85 87 92 97 95 86 77 74 75 78 78 75 72 72 75 74 72 75 78 79 80 87 97 96 86 80 80 82 85
99 100 96 94 96 100 100 97 96 96 96 98 95 93 96 98 94 89 84 79 76 72 69 66 65 71 78 84 87 88 87 84 84 86 85 83 83 84 86 88 88 83 82 86 89 88 86 89 94 97 94 88 81 80 81 82 82 80 76 75 75 73 72 75 78 78 80 89 99 97 89 85 82 83
98 98 94 91 94 98 99 99 100 99 98 99 98 96 97 96 93 88 83 80 79 75 70 67 67 68 73 79 84 84 83 81 80 81 83 82 84 85 84 84 86 86 84 85 91 92 88 89 94 96 95 96 91 85 84 87 88 87 83 79 75 71 72 77 82 82 80 85 96 100 96 90 85 85
96 96 93 92 94 96 98 99 99 99 98 98 97 98 100 98 94 90 85 83 83 79 73 69 69 70 71 75 80 82 81 78 76 77 79 81 84 86 83 79 80 83 85 86 90 91 88 86 91 95 94 94 95 90 87 88 90 90 88 83 77 73 77 86 91 89 84 82 87 94 97 95 90 88
94 96 94 94 97 97 96 97 99 100 100 99 97 98 100 100 95 90 87 87 88 85 80 74 70 71 73 75 76 78 81 79 75 74 76 78 80 81 79 74 73 77 83 86 86 87 87 84 85 91 90 88 92 92 89 87 87 90 91 87 82 81 84 89 93 93 89 86 82 83 91 96 94 91
93 92 92 94 98 99 95 94 97 100 100 100 100 99 100 101 99 95 92 92 94 94 89 81 75 75 78 79 76 76 78 79 77 75 76 76 75 76 74 68 67 70 76 81 81 82 85 84 83 87 88 85 85 87 88 87 86 89 91 87 85 91 94 94 94 94 93 90 86 84 89 96 96 93
92 86 84 87 91 94 96 96 98 100 100 100 100 100 100 100 99 100 98 94 93 97 97 90 83 81 83 85 84 82 78 77 77 77 77 76 75 75 72 68 68 69 70 74 77 75 78 84 85 84 85 86 85 84 83 83 85 92 94 86 81 89 98 101 98 97 97 94 90 87 88 91 93 92
88 82 81 82 84 87 93 98 100 100 100 101 100 100 101 101 99 100 99 92 86 89 95 95 90 88 87 85 85 86 83 79 78 78 78 77 76 74 70 68 70 71 71 72 71 65 69 80 81 76 80 86 87 87 86 81 82 92 100 95 86 85 93 100 101 100 100 99 97 93 89 88 89 89
90 90 90 90 89 89 92 97 100 100 99 100 101 100 99 100 100 100 99 95 88 85 88 92 93 92 89 82 76 79 84 83 80 80 79 79 77 72 67 66 67 69 71 72 68 62 65 74 73 69 75 84 84 85 88 85 81 85 94 98 94 89 89 94 98 100 101 100 100 99 96 93 91 90
94 96 97 96 97 99 98 94 92 94 97 98 99 101 101 100 100 99 99 98 94 90 89 91 93 92 90 86 78 77 83 86 83 82 80 79 78 73 69 66 65 66 70 71 68 65 66 70 71 70 76 83 82 81 84 87 86 87 92 95 95 94 93 91 92 95 99 101 100 100 99 99 97 96
88 89 92 91 90 93 94 88 79 80 88 92 93 95 99 100 99 97 97 98 98 97 96 95 95 95 94 92 85 82 85 87 85 85 83 80 77 74 70 66 63 65 68 68 67 67 68 72 74 73 72 74 77 79 81 84 85 88 93 96 96 96 97 95 94 94 96 100 101 100 100 100 99 99
79 80 83 83 79 76 78 82 81 80 83 89 91 91 93 96 96 93 94 97 98 98 98 97 97 98 99 96 92 90 89 87 87 87 86 83 80 76 71 66 63 62 64 65 66 66 69 73 75 73 68 63 65 73 79 81 81 82 86 91 97 100 99 98 98 98 98 99 100 100 100 100 100 100
79 79 80 83 85 82 80 86 92 89 84 85 88 88 88 91 93 92 93 95 97 97 97 98 98 100 100 99 98 97 95 92 90 90 90 87 84 80 74 67 62 61 61 63 64 66 69 73 73 74 71 62 57 64 74 79 80 81 81 85 90 96 100 100 100 99 99 100 100 100 100 100 99 100
90 90 90 91 93 94 91 91 93 91 88 88 89 89 90 91 92 93 92 93 95 96 96 96 98 98 99 100 100 99 98 95 93 94 95 92 89 87 81 72 65 63 63 64 64 65 69 72 73 73 71 65 59 58 63 70 74 77 79 82 83 86 92 98 100 100 100 100 99 98 98 97 97 98
96 96 95 95 96 97 96 95 94 94 94 94 91 89 89 90 90 92 93 92 93 94 94 94 94 94 96 97 96 96 98 98 95 94 92 89 89 92 88 80 73 68 66 66 66 67 69 71 72 70 67 64 61 57 57 61 66 71 76 79 80 81 83 87 93 98 100 100 100 100 98 97 98 98
99 98 95 95 98 99 99 98 98 97 95 94 91 88 89 91 92 94 97 96 93 92 93 92 91 90 92 91 86 87 93 96 94 93 90 86 89 95 94 88 82 75 70 69 68 68 70 71 69 67 65 63 60 56 56 57 60 65 70 73 77 80 80 80 83 89 95 98 99 100 100 100 100 100
100 100 98 97 99 100 100 99 99 97 94 93 92 89 89 92 94 95 95 94 93 92 91 89 88 88 89 88 85 85 89 93 95 97 96 94 96 99 97 93 88 81 76 74 73 71 70 70 68 65 64 64 61 58 57 57 58 62 66 69 72 74 75 77 78 81 87 93 96 98 99 99 99 99
93 92 91 91 93 97 99 99 98 95 91 89 88 88 88 91 94 95 95 92 90 88 88 88 87 87 87 90 90 88 88 94 99 100 100 100 100 100 98 94 91 87 81 80 79 76 72 72 71 68 66 66 66 64 61 58 57 60 64 66 66 66 68 72 75 77 79 84 90 95 98 99 99 99
88 89 90 91 94 98 99 99 99 94 87 85 89 94 94 92 91 92 93 92 87 84 87 89 89 89 89 91 92 89 90 96 101 99 99 100 99 99 98 94 92 91 89 86 84 80 76 75 75 73 72 72 72 71 68 64 60 60 62 65 65 63 62 64 69 74 76 77 80 85 91 96 98 98
89 93 96 98 99 100 99 99 98 94 87 84 89 96 97 93 90 91 93 94 90 86 88 91 91 92 92 92 92 88 87 95 101 100 99 100 99 97 95 91 88 90 91 91 89 84 79 77 77 77 79 80 77 74 72 70 66 62 61 64 66 65 62 61 64 69 72 74 75 76 80 85 90 93
89 90 94 97 98 98 96 94 94 94 94 91 91 94 94 89 88 90 92 92 90 90 91 92 92 94 94 95 96 90 85 92 101 101 99 100 99 98 96 90 85 86 88 90 91 89 84 83 83 83 83 83 82 78 75 73 71 66 63 64 66 66 64 63 62 63 66 70 72 72 73 75 78 81
87 85 89 94 96 94 92 91 93 96 99 98 96 97 95 90 88 90 91 90 90 92 93 93 94 96 97 99 101 97 92 95 101 100 100 100 99 100 99 94 88 87 87 89 91 90 89 88 90 90 89 88 86 83 79 77 74 71 69 68 67 67 65 64 63 61 61 64 68 70 70 70 71 72
88 85 86 90 94 95 93 95 98 99 100 100 100 99 100 98 96 97 96 95 95 96 95 95 96 98 97 97 100 100 99 100 101 100 100 100 99 99 99 95 91 90 91 91 92 92 91 92 95 96 94 91 88 85 83 83 80 75 73 72 71 69 67 65 65 64 61 60 64 67 67 65 65 65
88 88 90 92 95 97 98 98 101 100 100 101 100 100 100 101 100 100 100 100 99 98 97 97 97 97 96 97 98 100 100 100 100 100 100 100 100 100 100 97 94 93 93 93 92 93 95 97 98 95 89 85 86 86 83 84 86 82 76 73 73 73 71 68 67 66 64 62 62 63 63 61 60 60
91 91 95 97 98 100 100 100 101 101 100 100 100 100 101 100 100 100 100 100 100 99 99 99 99 99 98 98 99 99 100 100 99 100 100 100 100 100 100 98 96 94 94 93 91 93 97 99 99 95 87 83 88 87 80 78 85 87 82 76 74 74 74 73 71 69 68 65 62 62 62 60 58 58
96 95 97 99 99 99 99 99 100 101 101 101 100 100 100 101 101 101 100 100 100 100 100 100 100 100 100 100 100 99 100 100 100 99 100 100 101 101 100 99 98 96 96 96 96 97 99 100 99 98 92 86 86 85 78 74 78 82 81 80 79 77 75 75 74 73 71 70 67 66 64 62 60 58
100 100 99 99 99 98 96 96 96 98 99 99 98 97 97 98 98 98 99 100 101 100 100 100 100 100 100 100 101 100 100 100 99 99 99 99 99 99 99 98 98 98 99 100 100 100 101 101 100 99 95 88 84 80 74 71 72 73 75 78 82 82 80 79 78 75 73 72 71 69 66 64 62 58
100 101 100 100 99 97 94 91 87 86 86 87 88 89 89 91 92 93 94 95 96 98 100 100 100 101 101 100 100 100 99 98 96 95 97 98 99 99 97 96 96 98 98 99 100 100 99 99 98 98 96 92 87 82 78 75 74 74 74 76 77 78 78 78 77 75 72 70 69 68 67 65 62 59
100 100 101 102 100 97 96 92 85 81 77 75 74 74 72 75 81 87 90 90 90 91 94 97 98 99 100 101 100 98 95 94 93 94 96 97 97 99 99 96 94 96 95 93 93 95 94 93 93 96 97 95 92 89 85 81 77 74 73 74 74 73 71 69 69 69 69 68 66 66 65 64 63 62
100 100 101 102 101 99 98 95 89 85 81 77 75 72 67 66 69 73 80 87 91 90 91 93 96 97 97 98 99 96 93 92 92 93 95 94 93 96 98 95 91 92 91 87 86 88 90 90 92 95 97 97 95 90 83 79 75 70 67 67 69 70 68 65 61 60 61 63 64 64 62 62 62 62
101 101 100 101 102 101 100 98 95 93 89 86 84 80 76 73 71 68 71 79 89 94 93 91 92 96 97 97 97 94 91 91 93 94 95 93 90 91 93 91 89 89 89 85 84 87 90 91 93 97 98 98 96 90 83 79 77 71 66 64 66 66 64 60 56 53 53 54 55 56 55 55 55 55
101 101 101 101 102 101 100 99 98 97 96 94 91 88 85 82 79 76 73 74 80 89 95 93 91 92 94 96 99 96 91 91 94 95 95 95 93 92 91 89 89 89 88 86 86 90 93 94 96 99 99 95 91 87 83 80 77 74 69 66 66 65 62 60 61 66 71 67 57 51 52 52 50 49
101 102 101 100 99 100 100 99 97 96 96 95 95 94 92 89 86 83 80 77 76 80 85 88 90 92 93 93 96 97 96 96 98 97 95 95 95 94 92 91 90 90 90 88 87 89 93 95 96 96 96 92 87 85 83 81 79 75 71 69 68 67 65 63 64 74 85 81 62 48 47 49 46 44
Wind_Speed
25 27 29 29 29 27 26 29 29 29 30 27 26 28 25 18 11 10 11 10 12 20 24 20 21 31 35 32 30 33 38 43 44 42 43 45 47 48 50 52 52 51 50 51 52 51 50 47 45 43 40 38 37 35 33 31 30 30 28 25 25 28 30 33 36 34 34 34 34 35 36 34 35 36
25 25 27 28 29 28 27 29 31 32 32 29 28 29 29 25 17 11 11 11 13 19 24 23 19 24 33 35 34 35 37 41 41 41 42 45 46 47 48 50 51 49 45 46 48 48 48 48 45 43 42 39 38 37 37 36 34 32 31 30 29 29 30 33 34 35 35 35 33 33 35 35 35 35
24 26 27 28 28 28 29 30 30 31 31 29 29 28 28 28 24 19 14 10 16 20 22 24 21 21 28 34 35 36 37 38 37 39 41 43 46 47 46 46 48 48 43 41 43 44 43 44 43 41 40 38 37 36 36 38 37 36 35 33 32 31 31 31 31 33 35 36 35 33 33 33 34 35
25 26 27 27 28 27 28 31 30 28 28 29 30 27 25 26 25 24 19 11 15 23 24 23 21 21 24 28 32 36 37 36 34 36 39 41 42 44 45 44 44 47 46 40 39 41 41 40 39 38 37 36 35 35 34 35 36 36 36 35 35 34 33 32 31 31 31 35 37 37 35 32 32 34
24 25 25 27 29 29 32 35 32 27 26 29 29 26 23 24 24 23 21 14 13 19 23 21 16 17 20 22 27 33 33 34 33 33 35 38 39 41 43 44 43 45 48 43 37 36 38 38 36 34 34 33 32 31 32 33 33 34 34 34 34 35 36 35 34 32 31 31 34 38 39 36 34 34
22 22 24 25 26 29 33 33 28 24 25 26 27 26 23 23 23 23 23 19 14 13 18 18 13 14 18 18 22 27 31 34 35 33 33 34 36 38 40 42 43 44 47 45 38 34 34 35 35 33 32 32 29 27 27 29 31 31 32 32 32 33 35 36 35 34 33 31 31 34 38 40 38 35
20 21 23 23 23 24 26 23 21 21 25 26 25 25 23 22 21 23 25 23 17 10 10 14 13 14 17 17 18 23 26 28 29 30 31 32 32 33 35 37 40 42 44 44 40 35 32 32 31 31 31 32 31 28 26 27 29 30 30 31 32 32 33 34 35 34 34 33 33 32 35 40 42 37
21 21 22 22 21 22 22 19 17 19 22 24 23 21 21 21 20 22 25 26 22 12 5 7 9 11 14 15 16 19 19 19 20 21 23 27 30 32 32 33 35 36 39 41 40 37 33 31 29 29 29 30 33 32 30 29 28 29 29 29 31 31 31 32 33 33 33 33 33 33 33 36 40 39
22 21 22 23 21 21 22 19 17 18 19 18 18 18 18 18 19 18 19 21 19 13 7 6 7 8 8 7 12 18 18 17 15 14 16 22 27 29 30 29 29 30 31 32 34 33 32 31 31 29 28 29 32 35 34 32 30 29 29 29 29 30 30 31 31 32 33 33 33 34 33 33 36 39
22 22 22 23 22 21 21 19 17 17 16 14 15 16 16 17 17 15 14 14 13 10 8 8 8 9 9 6 7 14 20 20 17 13 13 17 21 23 25 26 25 26 26 25 26 26 27 29 31 31 30 29 30 33 34 34 32 31 31 31 30 29 29 31 31 31 31 32 32 33 33 33 33 37
22 23 23 23 23 22 21 21 19 16 14 14 15 15 15 16 15 13 13 12 11 9 9 8 8 9 10 9 7 9 14 18 18 16 13 12 15 17 18 20 22 24 23 22 22 22 22 24 28 31 32 30 28 30 33 34 33 33 32 33 34 32 30 30 31 31 31 31 31 31 32 33 32 34
25 24 24 24 23 22 22 22 19 16 15 14 15 15 14 13 11 11 11 11 10 9 10 9 8 9 9 9 9 8 8 10 14 17 16 12 13 15 14 15 19 21 21 19 20 20 20 19 22 27 31 32 30 28 30 32 34 35 34 34 35 35 33 31 31 32 31 31 32 32 33 33 33 33
26 24 23 22 21 21 22 22 20 18 17 16 15 14 13 11 9 9 10 10 9 10 9 9 9 8 9 9 11 12 12 10 10 15 15 11 11 13 12 12 16 19 19 18 18 20 21 20 19 22 27 31 32 29 28 30 33 35 36 36 35 35 35 33 32 33 32 32 33 33 33 34 34 33
24 23 21 19 19 20 21 22 21 20 19 18 18 15 13 12 11 10 10 10 9 10 10 10 10 9 8 10 13 15 16 13 10 13 13 10 12 13 9 8 13 17 18 18 16 17 21 21 19 20 24 27 30 30 29 30 32 33 35 36 36 36 35 33 32 33 33 33 34 34 34 34 35 35
19 19 18 17 17 18 19 19 20 20 20 19 19 18 16 16 15 13 12 11 11 11 11 11 12 11 10 11 13 14 15 13 12 13 12 11 14 13 8 6 10 17 21 19 15 15 19 20 17 16 21 23 26 29 30 30 31 31 32 33 34 35 34 33 33 33 33 33 33 34 34 34 35 35
14 14 13 13 13 14 16 16 17 18 19 20 20 18 18 18 18 17 16 14 13 13 13 12 12 13 13 12 13 12 14 15 13 11 11 12 14 13 10 7 8 16 23 19 13 12 18 20 17 15 19 22 24 27 30 30 30 30 31 31 32 32 32 31 31 31 32 32 32 32 33 34 35 35
13 13 11 9 10 11 11 13 14 15 16 18 19 19 18 19 19 19 18 17 16 15 14 13 14 15 14 14 15 13 12 14 13 11 11 12 13 13 12 9 9 16 23 20 13 10 15 20 20 18 20 23 23 25 29 31 31 29 29 31 31 31 31 31 31 31 31 31 30 31 32 33 35 35
13 13 12 9 8 8 9 10 11 13 14 15 17 18 18 19 18 18 19 18 18 17 16 15 15 15 15 14 15 15 14 15 15 14 12 12 13 12 10 8 9 15 23 23 15 9 12 20 21 18 18 21 23 24 26 29 30 28 27 30 30 28 28 29 31 32 32 32 31 31 30 31 33 34
15 14 13 11 9 9 9 9 10 12 12 13 14 16 17 18 18 18 19 19 20 19 18 17 16 16 16 16 14 14 16 17 16 14 13 12 11 10 8 8 9 13 20 23 15 8 12 18 17 14 14 17 20 23 25 27 26 24 24 27 29 27 24 23 25 28 30 31 33 34 33 32 32 33
17 15 13 12 11 11 10 10 10 11 12 12 13 14 15 16 17 18 20 21 22 21 19 18 17 16 17 17 16 15 16 18 16 13 12 11 10 9 9 9 9 11 17 20 15 9 10 14 14 12 12 13 15 17 21 25 25 21 19 20 24 27 26 21 19 21 25 27 28 31 34 35 34 34
16 15 14 13 13 12 12 10 9 9 11 12 13 12 13 14 15 16 18 21 23 22 21 20 19 19 19 18 18 18 17 18 18 15 13 12 13 13 10 9 10 11 14 18 16 11 10 12 13 12 11 11 12 12 14 20 24 23 20 17 19 23 26 24 20 18 20 23 24 26 31 34 34 33
14 13 14 14 13 13 12 12 11 10 11 12 12 12 12 13 14 14 14 18 21 22 22 22 21 21 22 20 19 19 19 20 21 20 18 16 16 16 13 12 13 11 12 18 18 12 10 12 13 11 9 7 9 10 9 12 18 20 19 18 18 19 21 23 24 21 20 21 22 24 26 29 31 31
13 13 13 14 16 16 15 16 16 16 15 14 13 13 13 13 14 14 13 15 18 19 21 22 21 21 22 21 21 20 20 21 22 23 23 19 18 18 15 14 14 9 9 19 22 14 10 13 14 12 9 5 7 11 11 11 14 15 15 16 17 19 19 20 22 23 22 20 20 22 24 26 29 30
14 14 13 15 17 18 18 19 20 21 20 18 16 16 16 15 15 15 15 15 16 17 18 19 20 20 20 20 21 21 22 23 24 24 25 22 19 18 16 15 16 11 7 17 25 19 11 12 14 13 9 5 5 9 13 14 14 15 15 14 14 15 18 20 21 23 23 21 20 21 22 25 29 31
13 13 12 12 13 15 16 16 18 20 21 22 21 19 19 18 17 16 16 15 16 16 16 16 17 18 18 18 20 21 21 23 24 24 25 25 22 20 17 16 17 13 8 12 23 22 13 11 14 13 10 7 4 6 9 12 15 17 16 15 14 12 13 17 19 20 22 23 23 23 23 23 25 29
12 12 12 12 13 14 15 15 17 18 19 21 23 22 22 21 21 20 18 16 16 16 15 15 15 16 17 17 18 20 20 21 24 24 23 25 26 23 21 17 15 14 10 11 20 24 16 12 16 15 11 9 6 5 7 9 13 18 19 17 16 13 12 14 16 18 21 24 25 25 26 26 26 27
10 10 11 12 13 14 15 16 17 18 19 20 21 23 24 24 24 23 20 18 17 16 15 14 14 15 17 17 18 19 19 20 23 22 20 23 27 25 23 21 16 14 13 12 18 24 18 13 18 20 15 11 9 7 6 7 8 14 20 21 20 17 15 14 15 17 19 21 23 25 26 27 27 28
9 10 11 13 14 14 16 16 17 19 20 20 21 22 23 24 24 24 22 19 18 16 15 15 15 15 16 16 18 19 19 19 22 21 19 22 25 25 24 24 20 18 19 15 15 21 21 16 18 22 20 15 10 8 8 7 8 11 15 17 19 21 20 16 15 16 16 19 23 26 26 26 26 28
10 12 14 15 15 15 15 16 17 17 16 16 17 19 21 22 23 23 22 20 18 17 16 16 16 16 16 16 16 18 19 19 19 19 19 19 21 22 22 22 21 21 21 18 15 17 22 22 21 21 20 17 12 9 9 9 9 11 14 13 14 19 24 22 19 17 16 20 25 27 27 27 26 27
12 13 14 15 15 13 11 10 11 10 9 9 12 16 20 21 20 21 22 21 18 17 17 16 16 16 15 15 15 16 17 17 16 18 20 19 18 20 21 19 18 18 18 18 16 16 20 25 24 20 19 19 15 10 9 9 8 10 16 16 12 12 19 24 24 21 18 19 22 24 26 27 26 27
14 13 11 11 10 8 5 5 5 6 6 7 9 10 15 19 18 18 20 21 19 18 16 15 14 14 14 15 15 14 14 14 16 20 22 20 17 18 18 16 15 15 16 17 17 17 19 24 25 22 20 20 17 14 11 11 9 10 14 19 15 9 11 18 23 25 24 21 20 22 25 27 27 27
10 8 6 5 4 3 1 1 2 3 4 5 6 5 9 15 15 15 16 18 19 17 17 16 14 13 14 15 14 14 13 13 16 21 23 22 20 19 17 14 12 12 14 15 16 18 19 22 24 24 21 18 18 18 16 14 12 10 12 18 20 16 14 15 18 21 25 22 20 21 25 27 29 29
8 8 8 8 8 7 6 4 3 4 3 2 3 3 3 8 11 12 13 15 16 15 16 16 15 14 14 13 12 14 14 13 15 19 20 20 22 19 15 12 12 12 13 14 17 18 20 21 22 23 22 20 19 20 18 14 13 12 12 16 20 21 20 20 18 18 21 22 21 21 23 26 29 30
9 9 9 10 9 8 8 7 7 7 6 5 4 2 2 5 8 9 11 13 13 14 14 15 14 13 12 11 11 12 13 11 12 15 15 15 19 18 12 9 11 14 15 16 18 19 19 20 21 20 21 21 21 22 21 17 14 15 17 18 20 22 22 23 23 21 20 21 21 19 20 25 29 31
10 11 11 10 10 9 9 8 8 8 8 8 6 3 4 6 7 9 10 10 12 13 14 13 13 12 11 11 10 10 12 12 14 15 13 13 17 18 13 10 12 16 17 17 18 21 20 20 20 17 14 14 14 17 23 23 19 16 17 19 21 22 22 24 26 25 23 22 21 19 17 19 25 30
12 12 11 10 10 10 9 9 9 9 9 9 8 7 8 9 9 10 10 11 13 15 15 14 13 11 10 10 10 10 12 13 15 16 15 15 16 14 10 9 12 17 18 17 18 22 22 21 20 16 8 6 7 8 15 23 25 21 18 18 21 23 23 23 24 26 25 25 24 22 18 16 18 25
13 13 11 10 10 10 9 10 11 12 13 12 11 11 10 10 9 9 9 10 12 14 14 15 14 12 12 13 13 14 14 14 14 15 16 15 15 11 8 8 11 15 17 17 18 21 22 22 22 17 9 5 6 5 6 13 22 27 25 21 20 23 25 23 22 23 25 26 27 27 26 22 19 21
11 13 12 10 10 10 11 13 16 17 17 17 16 16 15 13 13 11 10 10 11 11 11 13 13 11 11 13 14 14 14 13 13 13 13 13 12 10 8 10 12 13 15 15 16 19 21 21 21 18 13 7 6 6 5 6 13 23 28 26 23 23 23 22 22 23 25 27 29 30 30 29 24 22
9 11 11 10 10 11 14 16 18 19 19 20 20 20 18 17 17 16 14 12 11 10 10 10 10 10 10 11 12 13 13 13 12 12 11 9 8 7 7 9 12 13 12 13 14 15 18 21 21 19 16 12 8 8 8 7 10 17 24 25 25 25 24 23 24 24 25 27 29 29 30 30 30 29
9 9 10 11 12 14 15 16 17 18 19 19 19 18 18 18 17 17 16 14 13 11 11 9 8 8 8 8 9 10 10 9 8 9 8 6 5 5 6 9 12 13 11 11 13 14 18 22 24 22 19 16 14 13 11 8 9 13 17 19 21 23 25 26 26 26 26 26 27 26 26 26 27 28
11 11 11 12 13 13 14 14 15 16 17 17 17 17 16 15 15 14 13 12 12 11 10 9 8 7 6 6 6 6 6 5 5 5 6 6 5 5 6 8 10 10 10 9 10 13 18 22 24 23 21 18 16 13 9 6 7 10 13 17 19 20 22 25 26 27 27 26 24 22 19 18 18 19
12 11 12 14 14 13 12 12 12 12 13 14 14 14 14 13 12 11 10 9 9 9 8 7 7 6 5 5 5 4 4 4 4 5 5 5 4 5 7 8 8 8 9 9 8 11 16 18 20 21 21 19 16 11 7 7 8 8 10 15 19 21 22 23 25 27 28 28 27 22 17 13 11 11
11 10 11 13 13 12 12 11 10 10 10 10 10 10 11 11 10 10 10 9 7 7 6 5 5 4 4 4 3 3 3 4 4 5 5 5 4 4 6 7 7 7 9 8 7 10 12 14 15 18 18 17 15 12 9 10 11 10 9 12 16 20 21 23 24 25 27 29 31 30 27 21 14 10
11 10 10 11 12 12 12 11 11 10 9 8 7 8 8 8 8 9 9 8 6 4 4 4 3 2 2 2 2 3 3 3 3 4 4 4 5 5 5 6 6 6 7 6 7 9 11 11 12 14 15 14 13 12 11 10 11 10 10 11 14 17 19 20 22 23 24 27 30 31 32 32 29 24
10 9 9 10 11 11 11 10 10 9 8 7 6 6 6 5 5 5 6 6 6 4 2 2 2 1 1 0 1 1 2 2 3 3 3 3 4 4 5 5 6 6 7 8 8 8 9 10 10 12 13 12 11 11 12 13 13 12 11 11 14 18 19 20 21 22 23 27 31 32 32 33 35 35
Wind_Direction
256 256 255 256 257 259 259 258 255 251 250 251 252 249 246 243 245 248 245 245 239 232 231 224 214 219 223 221 222 227 231 233 232 229 228 228 230 230 228 227 226 227 228 229 230 231 233 235 236 237 237 237 236 231 224 219 216 214 213 215 214 214 218 219 219 221 221 220 219 218 216 215 218 217
256 255 255 254 255 257 259 258 254 250 249 249 248 248 248 246 245 251 251 250 247 238 233 230 216 212 219 222 223 227 231 234 231 228 228 227 229 231 231 228 226 225 227 228 230 231 233 234 236 238 239 238 237 237 234 230 226 222 220 219 216 213 216 219 222 225 222 219 220 221 220 218 220 222
255 255 254 253 253 255 257 255 251 247 246 247 246 245 246 246 246 250 255 254 250 246 239 233 219 209 217 220 221 224 229 232 228 226 228 228 228 230 232 230 226 223 224 225 227 229 231 234 235 236 238 237 235 234 235 235 232 229 227 226 223 219 219 220 221 224 223 220 221 221 220 220 221 223
256 255 254 255 255 257 257 251 245 244 244 244 245 245 246 247 244 244 250 255 250 249 250 244 224 210 211 213 214 219 224 227 225 225 228 229 227 227 229 230 226 222 221 222 224 226 227 230 231 232 233 235 234 231 230 232 233 232 231 230 229 228 226 225 223 225 224 223 222 220 219 219 219 222
258 257 257 258 257 260 261 251 242 242 242 241 242 243 244 245 242 241 246 252 252 250 252 250 230 205 200 204 210 214 216 221 222 221 225 227 225 224 226 228 226 222 219 219 221 223 224 225 225 226 226 228 229 228 226 227 229 231 231 230 230 231 232 230 228 228 226 225 223 220 220 220 220 221
264 263 261 259 257 261 261 249 237 240 244 242 241 239 239 241 240 240 245 248 249 248 243 235 218 197 197 203 209 208 209 216 218 215 218 222 222 223 224 225 226 223 219 218 219 219 220 221 222 222 222 222 221 220 220 221 224 226 228 228 228 230 232 232 232 230 229 228 226 222 221 221 221 221
272 269 266 262 257 261 260 245 233 243 250 249 245 240 237 237 237 238 242 244 243 240 231 222 207 193 197 203 207 206 206 211 212 211 215 218 218 219 221 223 225 224 219 217 217 216 215 216 217 219 220 220 219 217 217 219 221 222 223 225 226 226 228 230 231 231 230 229 228 226 223 221 221 221
272 270 269 267 261 258 257 248 239 243 248 248 245 243 239 237 238 236 235 238 238 229 204 213 214 196 190 198 204 202 200 200 202 203 209 215 217 217 219 221 223 222 219 217 216 216 216 215 214 215 217 220 220 217 216 217 218 220 221 222 225 226 226 227 229 229 229 228 226 225 223 222 221 221
268 267 267 267 263 258 254 249 243 243 244 240 237 240 240 236 234 227 225 229 229 218 191 189 208 199 181 184 193 192 188 184 185 189 201 212 214 214 216 218 219 218 215 214 214 216 218 219 217 214 213 218 221 219 216 215 215 216 218 219 222 224 224 225 226 227 228 227 225 224 222 220 220 220
265 264 265 264 261 257 252 249 246 245 245 240 238 240 238 234 227 213 211 216 213 213 208 185 180 190 189 180 179 191 190 181 172 174 191 204 206 207 210 212 214 214 214 212 212 213 216 218 218 216 213 216 220 220 217 216 214 215 215 215 216 218 220 221 223 225 227 228 226 224 223 221 219 218
265 264 262 261 258 253 248 248 248 247 245 244 244 241 235 233 223 203 204 213 207 211 218 196 167 167 178 178 177 196 196 182 173 170 173 185 196 201 205 207 208 210 213 215 215 214 215 216 217 217 216 216 219 221 219 217 216 216 216 215 214 214 215 217 218 221 225 227 225 222 221 220 218 216
270 267 262 257 253 248 244 244 244 243 242 242 245 241 230 225 216 204 208 214 211 212 219 217 192 155 147 157 163 172 181 176 175 176 174 177 190 195 195 199 204 205 206 209 213 213 212 212 214 216 218 218 219 221 221 220 220 221 219 218 217 215 216 217 218 220 223 226 226 223 220 218 217 215
271 266 263 257 249 243 241 241 241 242 240 239 243 241 228 216 213 217 220 217 217 217 217 224 214 174 149 150 152 162 183 192 183 177 174 171 175 179 179 188 200 204 201 202 206 209 210 209 210 213 217 219 220 219 219 220 223 224 223 221 219 217 217 218 219 221 223 225 225 224 222 220 219 218
267 263 261 255 245 241 241 240 242 245 244 241 242 241 234 226 222 223 226 222 222 220 215 218 218 204 184 171 164 173 188 191 177 172 173 161 155 159 157 175 198 202 198 196 199 205 208 208 208 212 215 217 218 217 215 217 221 224 225 225 222 220 220 221 221 221 223 224 223 222 221 221 220 220
275 268 256 247 242 239 238 240 242 245 246 245 243 242 241 239 233 227 225 224 223 224 223 217 213 214 209 190 179 179 181 179 174 173 174 161 153 158 161 171 194 200 196 191 189 197 206 205 204 210 214 214 215 213 213 215 219 222 224 225 225 223 222 222 221 221 222 224 222 219 218 218 218 218
299 293 263 241 239 239 235 236 239 242 245 245 244 241 239 239 237 234 230 226 222 223 225 221 215 215 214 206 196 186 177 179 177 167 171 177 171 172 181 179 185 197 195 186 175 188 204 206 202 209 214 214 214 214 213 214 218 221 222 223 224 223 221 219 217 216 218 220 221 219 216 215 215 215
300 308 295 256 238 240 238 236 234 234 238 240 241 240 238 238 239 239 237 232 226 224 224 223 222 219 215 213 210 202 189 184 179 168 172 184 185 187 196 194 186 191 191 182 167 176 200 206 206 211 217 218 217 217 216 215 217 220 221 220 221 222 222 220 218 216 215 216 218 219 218 216 215 214
287 298 302 282 249 242 245 242 236 233 234 235 235 234 232 233 235 236 237 233 227 226 227 228 229 225 221 219 214 208 204 199 195 191 189 189 188 191 197 190 181 189 193 187 175 170 195 203 205 209 216 220 221 220 218 217 217 219 221 221 220 219 218 217 218 218 217 215 214 215 215 215 213 213
278 281 285 281 270 261 256 251 241 234 232 233 234 232 229 228 229 229 230 229 226 225 225 229 232 229 225 223 216 207 208 212 211 208 207 205 193 184 183 175 169 186 196 193 184 178 189 193 195 197 203 213 218 219 220 218 216 217 220 223 223 220 213 210 212 214 213 213 214 213 214 214 213 212
269 269 268 267 266 263 259 255 245 237 234 231 231 232 232 230 229 229 230 232 231 229 226 226 228 228 225 224 222 216 213 215 216 213 214 213 200 190 194 190 177 181 192 194 193 191 181 178 183 186 188 196 203 209 216 218 215 212 213 219 222 222 218 210 207 209 209 208 209 211 213 214 214 214
267 264 262 262 261 259 257 253 245 239 237 234 230 230 232 231 230 230 230 233 234 233 232 229 228 230 230 229 230 229 223 219 215 211 210 211 209 211 213 207 195 187 189 192 195 199 187 172 174 179 178 183 190 193 206 215 215 214 212 212 217 221 222 218 210 207 208 206 204 205 209 212 212 212
263 262 259 257 254 253 250 248 248 246 243 242 238 231 229 228 230 229 226 229 231 232 232 232 232 233 234 234 233 230 226 223 218 214 213 212 211 213 216 214 206 194 191 195 194 195 188 171 165 166 160 171 194 193 193 206 212 214 214 215 218 218 220 222 218 213 210 207 204 204 206 210 211 209
261 259 256 254 253 252 249 249 253 252 248 247 246 240 234 227 227 226 222 221 223 223 226 228 230 231 231 232 234 231 226 224 221 219 218 214 208 209 210 210 206 197 198 202 197 190 179 170 166 166 161 172 203 201 200 204 208 210 210 215 221 221 219 220 220 217 214 210 208 206 204 206 207 207
265 263 260 260 261 262 259 256 254 252 249 246 245 243 239 232 228 225 222 220 219 219 221 223 224 226 226 227 230 229 224 223 222 221 220 216 211 211 210 210 210 207 204 202 198 193 182 173 173 177 185 193 186 193 206 213 210 208 205 207 218 220 218 219 220 220 220 217 216 212 206 205 207 207
271 270 268 266 266 270 270 262 253 250 248 244 241 240 238 235 231 226 222 222 222 220 220 220 219 220 221 221 222 222 220 221 221 221 222 220 217 215 213 213 214 212 211 209 202 196 184 175 175 176 191 203 160 152 191 207 213 213 206 204 211 213 212 214 216 220 223 223 224 222 218 215 214 213
271 271 273 272 270 271 272 265 256 252 249 243 238 236 234 233 231 226 222 221 221 220 218 216 214 214 213 212 214 215 215 216 218 220 221 221 222 223 220 220 218 212 215 221 208 199 190 183 183 178 182 195 182 154 175 198 214 218 213 208 207 207 208 211 212 214 217 218 221 224 225 225 224 222
280 277 277 278 279 276 272 268 262 257 253 248 241 236 234 232 230 226 221 216 216 216 214 212 212 211 210 208 209 210 210 212 216 219 220 222 225 225 221 221 223 219 221 228 215 204 197 192 194 194 190 188 186 182 188 193 204 216 220 218 213 209 206 210 216 216 215 215 217 218 220 222 223 224
285 283 280 279 278 277 274 270 266 262 259 255 249 244 240 235 230 225 217 207 205 209 210 210 210 209 210 210 210 209 209 210 213 216 219 223 224 222 219 220 224 225 227 235 228 214 207 204 207 207 203 197 193 191 196 195 193 207 216 218 220 219 214 210 215 215 212 217 220 219 221 223 223 222
284 280 279 279 277 275 274 270 266 264 260 255 254 250 244 237 230 224 216 206 200 203 205 207 209 207 208 211 210 209 210 208 206 209 212 213 214 213 214 218 222 225 227 230 231 223 217 217 218 215 209 208 209 205 198 192 195 209 213 209 217 227 225 221 219 214 212 219 223 222 224 227 227 226
303 298 293 291 287 283 278 268 263 263 257 260 268 258 242 233 225 218 213 207 203 204 204 203 206 206 205 205 202 202 205 201 198 202 203 199 199 203 204 206 212 219 223 224 225 223 220 220 222 221 217 217 220 217 205 194 191 207 217 215 210 226 234 231 226 221 218 220 223 224 225 226 227 227
321 318 313 307 301 295 278 255 262 274 269 279 289 262 226 216 214 213 210 205 203 205 201 196 197 198 197 193 187 188 195 195 197 204 202 193 189 193 194 196 203 211 217 221 220 217 216 216 219 223 223 221 221 218 213 213 209 208 220 224 216 211 234 235 229 227 226 223 223 226 228 229 229 229
336 340 344 345 356 28 28 250 267 297 283 278 293 268 200 194 201 209 205 198 198 200 196 190 188 188 190 188 182 185 192 190 193 200 199 192 188 186 185 187 192 199 207 213 214 213 213 214 217 223 225 223 223 223 220 221 222 214 219 228 224 218 227 234 230 229 228 223 222 226 229 231 232 233
6 10 22 27 36 42 29 19 17 358 341 307 300 304 195 187 195 201 200 195 192 191 189 184 180 179 183 180 174 184 192 186 184 189 191 192 192 188 185 190 192 190 196 204 208 208 211 214 216 220 222 223 227 230 225 220 223 221 219 227 227 224 228 232 232 232 230 225 224 227 231 233 233 233
21 19 27 25 22 24 20 17 15 7 9 16 1 337 217 202 198 192 192 192 185 178 176 176 173 172 173 169 164 175 183 178 177 184 188 193 195 191 187 196 203 203 204 207 210 210 211 214 215 217 222 225 229 232 229 223 225 228 226 229 230 228 230 233 234 235 235 231 227 227 232 237 238 238
30 29 34 27 20 23 23 20 18 18 25 27 23 52 128 146 151 155 164 171 172 169 167 169 170 169 168 167 167 175 179 176 178 183 185 191 196 195 192 196 207 211 210 210 216 217 214 212 211 209 215 224 229 236 235 230 228 228 227 229 231 229 230 235 234 233 234 232 228 227 230 237 241 244
37 32 33 25 19 22 23 19 19 27 39 43 43 64 91 103 114 130 143 155 167 173 172 169 168 167 167 171 175 181 184 183 184 186 186 189 194 196 195 199 209 213 211 210 217 219 213 210 206 198 191 206 220 236 239 232 229 225 222 226 232 230 229 232 234 232 230 229 228 228 230 233 239 245
36 33 33 25 21 22 22 22 27 36 45 51 55 63 75 86 96 111 134 151 160 168 171 169 167 167 172 178 183 187 188 189 189 189 189 193 195 193 191 195 202 208 209 210 216 218 212 208 205 200 194 206 217 224 235 231 229 228 225 226 232 233 230 228 229 229 229 230 231 232 235 238 241 245
30 30 30 24 20 23 30 39 44 48 52 57 61 65 71 79 89 100 117 134 141 149 159 165 169 173 177 182 185 187 188 189 189 189 190 193 195 194 195 197 198 202 205 208 215 217 213 210 208 206 204 208 214 222 226 219 225 232 233 229 228 232 231 225 225 229 232 234 236 237 237 239 240 241
24 29 31 30 31 37 45 51 54 56 58 61 64 65 68 73 79 86 94 102 112 126 138 149 161 169 173 178 180 182 183 183 184 186 188 190 193 194 194 197 200 200 199 203 212 216 214 213 213 211 212 217 222 229 231 222 223 235 238 232 227 231 233 230 229 233 235 236 238 239 239 241 244 245
22 26 32 39 47 51 52 54 57 60 62 65 66 67 69 71 72 75 80 84 90 99 107 116 130 144 154 162 168 172 174 173 173 179 179 178 183 188 188 195 200 199 195 200 210 215 217 219 219 217 218 224 229 233 238 239 235 236 239 237 233 235 240 241 238 236 237 238 239 238 238 241 245 248
29 29 33 43 52 56 55 56 60 63 65 66 66 65 65 68 69 70 72 77 82 87 91 95 101 111 127 142 149 152 153 150 153 167 170 167 170 180 187 193 195 193 195 203 208 216 226 230 226 221 220 224 228 232 238 243 242 237 237 242 244 242 243 245 245 242 241 241 237 233 233 237 242 244
30 32 36 43 49 53 56 59 62 64 65 67 67 65 63 63 65 66 68 73 79 82 83 85 91 97 107 125 137 144 150 155 166 181 183 179 176 182 192 197 193 193 205 215 215 222 234 239 233 225 224 225 225 227 230 234 237 236 233 240 249 250 246 246 247 244 242 241 236 231 226 224 228 235
29 28 32 39 42 43 46 51 54 56 58 60 64 67 67 65 61 60 62 67 75 84 87 86 88 93 96 107 126 140 141 150 173 195 200 198 194 195 203 207 203 203 211 220 224 227 236 242 236 226 223 223 222 223 232 240 242 241 238 241 250 253 252 250 249 247 246 244 241 238 234 228 223 225
34 28 25 32 36 37 39 42 42 42 43 44 48 56 63 67 65 62 61 59 59 75 100 105 100 96 91 96 113 128 136 149 172 189 195 196 201 208 213 213 213 213 214 219 229 233 235 237 230 220 217 220 221 223 233 242 245 247 247 244 248 252 253 250 247 246 247 246 244 242 241 238 237 238
42 39 35 36 35 31 30 32 34 34 36 38 41 43 48 57 62 62 64 64 59 55 69 113 138 182 234 316 88 116 153 181 187 192 200 209 214 216 219 218 215 216 219 219 223 228 229 226 220 217 220 225 228 233 240 246 250 253 254 250 249 250 251 249 245 242 243 247 248 246 245 244 244 245